Location: Hawks Ness
(60.2333°N, 1.1667°W)
Time: 23:14:09
(UTC+00:00)

Cosmos 841 Rocket - Pass Details

Date: 22 October 2019
Orbit: 746 x 773 km, 74.0° (Epoch: 11 November)

Event Time Altitude Azimuth Distance (km) Brightness Sun altitude
Rises 05:58:29 0° 326° (NNW) 3,265 6.4 -8.4°
Reaches altitude 10° 06:00:59 10° 320° (NW) 2,333 5.6 -8.1°
Maximum altitude 06:05:54 40° 252° (WSW) 1,132 4.0 -7.4°
Drops below altitude 10° 06:10:46 10° 184° (S) 2,311 6.1 -6.9°
Sets 06:13:14 0° 177° (S) 3,230 6.9 -6.6°
